Regional Weather Roundup
Issued by NWS

Home | Current Version | Previous Version | Graphics & Text | Print | Product List | Glossary On
Versions: 1 2 3 4 5 6 7 8 9 10 11 12 13 14 15 16 17 18 19 20 21 22 23 24 25 26 27 28 29 30 31 32 33 34 35 36 37 38 39 40 41 42 43 44 45 46 47 48 49 50
819
ASUS43 KLOT 280508
RWRIL

ILLINOIS REGIONAL WEATHER ROUNDUP
NATIONAL WEATHER SERVICE CHICAGO/ROMEOVILLE IL
1100 PM CST MON FEB 27 2017

NOTE: "FAIR" INDICATES FEW OR NO CLOUDS BELOW 12,000 FEET WITH NO
SIGNIFICANT WEATHER AND/OR OBSTRUCTIONS TO VISIBILITY.

* THESE STATIONS ARE NOT UNDER NWS QUALITY CONTROL. THEY ALSO MAY NOT
  REPORT WEATHER SUCH AS PRECIPITATION OR FOG.

ILZ001-002-007-009-015-016-024-280600-
NORTHWEST ILLINOIS

CITY           SKY/WX    TMP DP  RH WIND       PRES   REMARKS
MOLINE         CLOUDY    50  38  63 SE13      29.87F
STERLING*      LGT RAIN  47  40  76 SE10G18   29.94F
$$

ILZ003-004-008-010-011-017-018-280600-
NORTH CENTRAL ILLINOIS

CITY           SKY/WX    TMP DP  RH WIND       PRES   REMARKS
ROCKFORD       CLOUDY    47  36  65 SE10      30.00S
FREEPORT*      LGT RAIN  42  35  76 NE3       29.99F
ROCHELLE*      CLOUDY    44  39  81 SE17      29.97F
DE KALB*       CLOUDY    43  38  81 SE14      30.00S
PERU*          CLOUDY    47  40  76 SE17G24   29.96F
$$

ILZ005-006-012>014-019>023-280600-
NORTHEAST ILLINOIS

CITY           SKY/WX    TMP DP  RH WIND       PRES   REMARKS
CHICAGO-OHARE  CLOUDY    47  38  71 SE10      30.01F
CHICAGO-MIDWAY CLOUDY    48  38  68 SE12      30.03F
AURORA         CLOUDY    46  38  73 SE10      30.01F
LANSING*       CLOUDY    46  41  84 S9        30.06S
JOLIET*        CLOUDY    47  41  79 S10G16    30.02F
WAUKEGAN       CLOUDY    42  35  76 S10       30.02F
DUPAGE AIRPORT CLOUDY    47  38  71 S12G21    30.01S
KANKAKEE*      CLOUDY    45  40  82 E7        30.05F
WHEELING       CLOUDY    46  37  71 S9        30.03F
MORRIS*        CLOUDY    47  41  77 S15G22    30.00F
ROMEOVILLE*    CLOUDY    45  41  87 S16       30.02F
NORTHERLY ISL    N/A     45  38  76 SE10        N/A
$$

LMZ740>746-280600-
SOUTHERN LAKE MICHIGAN

STATION/POSITION SKY/WX   TEMP    WIND        PRES    VSBY  WAVE
                          AIR SEA DIR/SP/G                  HT/PER
                          (F)     (DEG/KT/KT) (MB)    (MI)  (FT/S)
HARRISON CRIB              42     160/ 17/ 18   N/A
BURNHAM HARBOR             45     160/ 10/ 12   N/A
CALUMET HARBOR             46     150/ 10/ 13 1017.0R
BURNS HARBOR               47     170/ 11/ 17 1018.6S
MICHIGAN CITY              45     130/ 12/ 14   N/A
$$

ILZ025>027-034>036-040-047-049-050-058-095>099-280600-
WEST-CENTRAL ILLINOIS

CITY           SKY/WX    TMP DP  RH WIND       PRES   REMARKS
QUINCY         CLOUDY    55  45  68 S15       29.86F
GALESBURG*     CLOUDY    51  41  70 SE9G18    29.89F
MACOMB*        MOCLDY    52  44  73 SE13      29.92F
JACKSONVILLE*  LGT RAIN  55  47  73 S13G24    29.93S
PITTSFIELD*    MOCLDY    56  48  74 S14       29.91F
$$

ILZ028>032-037-038-041>044-048-051>054-059>061-280600-
CENTRAL ILLINOIS

CITY           SKY/WX    TMP DP  RH WIND       PRES   REMARKS
PONTIAC        CLOUDY    47  45  91 SE15      30.00F
BLOOMINGTON    CLOUDY    47  44  90 SE18      29.97F
DECATUR        MOCLDY    49  44  83 SE16      29.99F
PEORIA         CLOUDY    51  45  79 SE10G21   29.94F
LACON*         LGT RAIN  47  42  82 SE17      29.93F
LINCOLN*       RAIN      50  48  90 SE14      29.96F
SPRINGFIELD    CLOUDY    55  45  68 SE20G28   29.94F
TAYLORVILLE    CLOUDY    51  45  79 SE14      29.96F
$$

ILZ033-039-045-046-055>057-062-063-280600-
EAST-CENTRAL ILLINOIS

CITY           SKY/WX    TMP DP  RH WIND       PRES   REMARKS
CHAMPAIGN      LGT RAIN  47  43  86 SE14      30.03F
RANTOUL*       LGT RAIN  48  46  92 SE13      30.02F
MATTOON        CLOUDY    49  44  83 SE12      30.02F
PARIS*         CLOUDY    47  43  85 E8        30.07F
$$

ILZ079-100>102-280600-
SOUTHWEST ILLINOIS

CITY           SKY/WX    TMP DP  RH WIND       PRES   REMARKS
ALTON          RAIN      55  49  82 S14G23    29.97R
BELLEVILLE     CLOUDY    54  50  84 E6        29.98F
CAHOKIA*       MOCLDY    56  49  77 S12G18    29.96F
SPARTA*        CLOUDY    56  47  73 S10       30.01F
$$

ILZ064>066-069>071-074>076-080>082-084>086-088>090-092>094-280600-
SOUTH-CENTRAL ILLINOIS

CITY           SKY/WX    TMP DP  RH WIND       PRES   REMARKS
CARBONDALE     CLOUDY    57  47  69 S14G22    30.03F
CAIRO*         RAIN      55  49  82 SE8       30.07S
EFFINGHAM*     MOCLDY    50  46  85 SE9       30.04F
MARION         CLOUDY    59  46  63 S14G20    30.05F
MT. VERNON     MOCLDY    54  46  74 S10       30.03F
CENTRALIA*     CLOUDY    56  47  74 SE14G21   30.00F
SALEM*         CLOUDY    54  45  72 SE9       30.02F
METROPOLIS*    CLOUDY    56  46  70 CALM      30.09S
$$

ILZ067-068-072-073-078-083-087-091-280600-
SOUTHEAST ILLINOIS

CITY           SKY/WX    TMP DP  RH WIND       PRES   REMARKS
LAWRENCEVILLE  PTCLDY    50  43  77 S12       30.07F
FLORA*         PTCLDY    50  46  84 S7        30.05S
FAIRFIELD*     MOCLDY    53  46  75 S6        30.05R
HARRISBURG*    CLOUDY    57  46  68 S15G21    30.07S
ROBINSON*      MOCLDY    48  43  82 SE9       30.07F
CARMI*         CLOUDY    51  46  80 S13       30.07R
$$

ABBREVIATIONS USED IN REMARKS
   TC - TEMPERATURE IN CELSIUS
  WCI - WIND CHILL INDEX
   HX - HEAT INDEX
  VSB - VISIBILITY
$$





USA.gov is the U.S. government's official web portal to all federal, state and local government web resources and services.